{"data":{"norad_id":69084,"intl_designator":"2026-104M","name":"QIANFAN-138","alt_names":[],"object_type":"PAYLOAD","status":"ACTIVE","operator":null,"country":"PRC","launch_date":"2026-05-12","launch_site_code":"TAISC","launch_vehicle":null,"mission":null,"orbit_class":"UNKNOWN","rcs_meters":null,"size_class":null,"mass_kg":null,"dimensions":null,"purposes":[],"wikipedia_slug":null,"has_3d_model":false,"image_url":null,"decayed_at":null,"tle_current":{"epoch":"2026-05-25T04:27:06.179616Z","epoch_age_seconds":62225,"freshness":"FRESH","line1":"1 69084U 26104M   26145.18548819  .00000082  00000+0  31093-4 0  9991","line2":"2 69084  88.9870 344.2472 0003030 175.0482 185.0739 14.20798096  1828","mean_motion":14.20798096,"eccentricity":0.000303,"inclination_deg":88.987,"raan_deg":344.2472,"arg_perigee_deg":175.0482,"mean_anomaly_deg":185.0739,"bstar":3.1093e-5,"rev_number":182,"period_min":101.35148717147,"perigee_km":820.47311856894,"apogee_km":824.83679849581,"semimajor_km":7200.7919585324,"source":"CELESTRAK","updated_at":"2026-05-25T13:38:09.051424Z"}}}